Regional Weather Roundup
Issued by NWS

Home | Current Version | Previous Version | Text Only | Print | Product List | Glossary Off
Versions: 1 2 3 4 5 6 7 8 9 10 11 12 13 14 15 16 17 18 19 20 21 22 23 24 25 26 27 28 29 30 31 32 33 34 35 36 37 38 39 40 41 42 43 44 45 46 47 48 49 50

039
ASUS43 KLOT 302303
RWRIL

ILLINOIS REGIONAL WEATHER ROUNDUP
NATIONAL WEATHER SERVICE CHICAGO/ROMEOVILLE IL
600 PM CDT SAT APR 30 2016

NOTE: "FAIR" INDICATES FEW OR NO CLOUDS BELOW 12,000 FEET WITH NO
SIGNIFICANT WEATHER AND/OR OBSTRUCTIONS TO VISIBILITY.

* THESE STATIONS ARE NOT UNDER NWS QUALITY CONTROL. THEY ALSO MAY NOT
  REPORT WEATHER SUCH AS PRECIPITATION OR FOG.

ILZ001-002-007-009-015-016-024-010000-
NORTHWEST ILLINOIS

CITY           SKY/WX    TMP DP  RH WIND       PRES   REMARKS
MOLINE         CLOUDY    48  45  89 NE13      29.86R FOG
STERLING*      CLOUDY    45  45 100 NE17G23   29.88R
$$

ILZ003-004-008-010-011-017-018-010000-
NORTH CENTRAL ILLINOIS

CITY           SKY/WX    TMP DP  RH WIND       PRES   REMARKS
ROCKFORD       LGT RAIN  45  42  89 E21G30    29.94S FOG
FREEPORT*      RAIN      43  41  94 NE21      29.94R
ROCHELLE*      CLOUDY    45  43  93 NE18G25   29.91R FOG
DE KALB*       LGT RAIN  44  43  96 NE21      29.91R
$$

ILZ005-006-012>014-019>023-010000-
NORTHEAST ILLINOIS

CITY           SKY/WX    TMP DP  RH WIND       PRES   REMARKS
CHICAGO-OHARE  HVY RAIN  45  43  93 NE20G30   29.92R FOG
CHICAGO-MIDWAY LGT RAIN  46  43  89 NE20      29.92R FOG
AURORA         CLOUDY    46  44  93 NE17G30   29.89R FOG
LANSING*       RAIN      48  47  95 NE8       29.90R
WAUKEGAN       LGT RAIN  43  42  97 NE12G21   29.95F FOG
DUPAGE AIRPORT LGT RAIN  45  41  86 NE20G28   29.90R FOG
WHEELING       LGT RAIN  44  42  93 NE13G23   29.95R FOG
NORTHERLY ISL    N/A     44  42  93 NE18        N/A
NORTHERLY ISL    N/A     44  42  93 NE18        N/A
$$

LMZ740>746-010000-
SOUTHERN LAKE MICHIGAN

STATION/POSITION SKY/WX   TEMP    WIND        PRES    VSBY  WAVE
                          AIR SEA DIR/SP/G                  HT/PER
                          (F)     (DEG/KT/KT) (MB)    (MI)  (FT/S)
SOUTHERN BUOY              43 40   70/ 12/ 14 1015.6          1/ 3
HARRISON CRIB              44      50/ 25/ 28   N/A
BURNHAM HARBOR             44      40/ 16/ 20   N/A
CALUMET HARBOR             45                 1012.1F
BURNS HARBOR               48      60/ 16/ 18 1012.9F
MICHIGAN CITY              48      40/ 12/ 13   N/A
ST. JOSEPH                 48 47                N/A           2/ 3
$$

ILZ025>027-034>036-040-047-049-050-058-095>099-010000-
WEST-CENTRAL ILLINOIS

CITY           SKY/WX    TMP DP  RH WIND       PRES   REMARKS
QUINCY         LGT RAIN  67  63  87 E8        29.73R
MACOMB*        CLOUDY    58  58  99 E9        29.79S FOG
PITTSFIELD*    CLOUDY    72  66  81 E8        29.75R
$$

ILZ028>032-037-038-041>044-048-051>054-059>061-010000-
CENTRAL ILLINOIS

CITY           SKY/WX    TMP DP  RH WIND       PRES   REMARKS
BLOOMINGTON    LGT RAIN  59  59 100 SE7       29.79S VSB 1
DECATUR        CLOUDY    64  61  90 S6        29.79R
PEORIA         CLOUDY    55  53  93 E13       29.79R FOG
SPRINGFIELD    PTSUNNY   68  64  87 S7        29.76R
TAYLORVILLE    NOT AVBL
$$

ILZ033-039-045-046-055>057-062-063-010000-
EAST-CENTRAL ILLINOIS

CITY           SKY/WX    TMP DP  RH WIND       PRES   REMARKS
CHAMPAIGN      CLOUDY    60  60 100 SE8       29.80R FOG
MATTOON        LGT RAIN  65  61  87 S7        29.79R
$$

ILZ079-100>102-010000-
SOUTHWEST ILLINOIS

CITY           SKY/WX    TMP DP  RH WIND       PRES   REMARKS
ALTON          PTSUNNY   72  61  68 S5        29.76
CAHOKIA*       SUNNY     75  62  64 S10       29.74R
SPARTA*        MOSUNNY   73  62  67 S6        29.79R
$$

ILZ064>066-069>071-074>076-080>082-084>086-088>090-092>094-010000-
SOUTH-CENTRAL ILLINOIS

CITY           SKY/WX    TMP DP  RH WIND       PRES   REMARKS
CARBONDALE     MOSUNNY   71  60  68 S10       29.79R
MARION         PTSUNNY   73  63  68 S12       29.81R
MT. VERNON     PTSUNNY   72  61  68 S9        29.80S
SALEM*         PTSUNNY   73  62  69 SW12      29.78S
$$

ILZ067-068-072-073-078-083-087-091-010000-
SOUTHEAST ILLINOIS

CITY           SKY/WX    TMP DP  RH WIND       PRES   REMARKS
LAWRENCEVILLE  CLOUDY    68  64  87 S10       29.82S
FLORA*         CLOUDY    72  65  79 S10       29.80F
HARRISBURG*    CLOUDY    72  65  81 S9        29.81R
ROBINSON*      CLOUDY    65  62  89 S7        29.82S
$$

ABBREVIATIONS USED IN REMARKS
   TC - TEMPERATURE IN CELSIUS
  WCI - WIND CHILL INDEX
   HX - HEAT INDEX
  VSB - VISIBILITY
$$





USA.gov is the U.S. government's official web portal to all federal, state and local government web resources and services.